Hourly Data Report for October 09, 2016

All times are specified in Local Standard Time (LST). Add 1 hour to adjust for Daylight Saving Time where and when it is observed.

KUGAARUK CLIMATE
NUNAVUT

68°32'15.060" N
89°47'47.020" W
15.80 m
2303094
71407
NBB

Download Data

Hourly Data (October 2016)
Hourly Data Report for October 9, 2016
Temp Definition
°C
Dew Point Temp Definition
°C
Rel Hum Definition
%
Wind Dir Definition
10's deg

Wind Spd Definition
km/h
Visibility Definition
km
Stn Press Definition
kPa
Hmdx Definition


Wind Chill Definition


Weather Definition


TIME
00:00 -3.1 -4.6 89 30 9   101.26   -7 LegendNANA
01:00 -2.7 -3.6 93 29 10   101.24   -7 LegendNANA
02:00 -3.0 -5.0 86 30 19   101.22   -9 LegendNANA
03:00 -3.6 -5.9 84 30 15   101.22   -9 LegendNANA
04:00 -3.8 -7.4 76 30 23   101.23   -11 LegendNANA
05:00 -4.9 -9.9 68 30 14   101.23   -10 LegendNANA
06:00 -6.5 -10.8 71 28 6   101.20   -9 LegendNANA
07:00 -5.1 -7.7 82 22 12   101.16   -10 LegendNANA
08:00 -5.2 -6.7 89 26 11   101.11   -10 LegendNANA
09:00 -5.2 -6.5 90 32 2   101.04   -6 LegendNANA
10:00 -5.6 -7.6 86 35 16   101.05   -12 LegendNANA
11:00 -6.2 -8.3 85 30 19   101.07   -13 LegendNANA
12:00 -6.0 -9.7 75 30 17   101.09   -12 LegendNANA
13:00 -6.0 -9.7 76 29 16   101.08   -12 LegendNANA
14:00 -5.8 -8.5 81 27 19   101.06   -12 LegendNANA
15:00 -5.4 -8.1 82 26 28   101.03   -13 LegendNANA
16:00 -5.3 -7.1 87 28 29   101.01   -13 LegendNANA
17:00 -6.7 -10.5 75 30 28   101.05   -15 LegendNANA
18:00 -8.3 -11.8 76 30 28   101.09   -17 LegendNANA
19:00 -7.9 -11.6 75 30 20   101.07   -15 LegendNANA
20:00 -8.2 -11.9 74 30 28   101.03   -17 LegendNANA
21:00 -8.9 -12.9 72 30 21   101.04   -17 LegendNANA
22:00 -8.4 -12.1 75 29 25   101.03   -17 LegendNANA
23:00 -7.6 -10.3 81 25 22   101.01   -15 LegendNANA

Notes on Data Quality.

Legend

  • E = Estimated
  • M = Missing
  • NA = Not Available
  • ‡ = Partner data that is not subject to review by the National Climate Archives
Date modified: